This is the latest recevied weather packets stored in our database for station/object N8JE-13. If no packets are shown the sender has not sent any weather packets the latest 10 day(s).
| Time | Temp. | Humidity | Pressure | Rain* | Wind** | Luminosity | Snow |
|---|---|---|---|---|---|---|---|
| 1777944652 | 19.44° C | 63% | 1004.4 hPa | 0 mm | - | - | - |
| 1777944352 | 20° C | 63% | 1004.3 hPa | 0 mm | - | - | - |
| 1777944052 | 20° C | 63% | 1004.2 hPa | 0 mm | - | - | - |
| 1777943752 | 19.44° C | 64% | 1004.3 hPa | 0 mm | - | - | - |
| 1777943451 | 19.44° C | 64% | 1004.3 hPa | 0 mm | - | - | - |
| 1777943152 | 19.44° C | 64% | 1004.2 hPa | 0 mm | - | - | - |
| 1777942852 | 19.44° C | 64% | 1004.2 hPa | 0 mm | - | - | - |
| 1777942552 | 20° C | 63% | 1004.1 hPa | 0 mm | - | - | - |
| 1777942253 | 20° C | 62% | 1004 hPa | 0 mm | - | - | - |
| 1777941952 | 20° C | 61% | 1004 hPa | 0 mm | - | - | - |
| 1777941652 | 20.56° C | 61% | 1004.1 hPa | 0 mm | - | - | - |
| 1777941352 | 20.56° C | 60% | 1004.1 hPa | 0 mm | - | - | - |
| 1777941052 | 20.56° C | 59% | 1004.1 hPa | 0 mm | - | - | - |
| 1777940751 | 21.11° C | 59% | 1004.1 hPa | 0 mm | - | - | - |
| 1777940452 | 21.11° C | 58% | 1004.1 hPa | 0 mm | - | - | - |
| 1777940152 | 21.11° C | 58% | 1004.3 hPa | 0 mm | - | - | - |
| 1777939851 | 21.11° C | 57% | 1004.2 hPa | 0 mm | - | - | - |
| 1777939551 | 21.11° C | 57% | 1004.2 hPa | 0 mm | - | - | - |
| 1777939251 | 21.67° C | 57% | 1004.3 hPa | 0 mm | - | - | - |
| 1777938952 | 21.67° C | 56% | 1004.4 hPa | 0 mm | - | - | - |
| 1777938651 | 21.67° C | 55% | 1004.4 hPa | 0 mm | - | - | - |
| 1777938351 | 21.67° C | 55% | 1004.4 hPa | 0 mm | - | - | - |
| 1777938051 | 21.67° C | 54% | 1004.3 hPa | 0 mm | - | - | - |
| 1777937751 | 22.22° C | 53% | 1004.4 hPa | 0 mm | - | - | - |
| 1777937451 | 22.22° C | 53% | 1004.5 hPa | 0 mm | - | - | - |
* Rain latest hour (hover to see other rain measurements)
** Current wind speed in m/s (hover to see current wind gust speed)